Starlink 32226

operational
NORAD ID: 60426 Int'l Des: 2024-144 Owner: SPXS Country: US Constellation: starlink
LEOCIRCULAR

About Starlink 32226

Description loading...

Live Position

Loading 3D Globe...

Upcoming Passes

Altitude History

Altitude vs Time

uPlot chart will show altitude changes over time

Two-Line Element Set

1 60426U 24144B 25303.17803769 .00001619 00000-0 66786-4 0 9991
2 60426 53.1589 103.6023 0001235 94.9746 265.1396 15.30188133 69321
Epoch: Oct 30, 2025 • Age: 17 hours

Current Status

Altitude 493.8 km
Velocity 7.62 km/s
Sub-Earth Point -51.38°S, 6.23°W
Launch Date Aug 12, 2024
Age 1.2 years
Type internet

Technical Details

Classification Payload
Mass 730.00 kg
Dry Mass 700.00 kg
Total Mass 730.00 kg
Length 0.30 m
Diameter 4.10 m
Span 29.00 m
Shape Box + pan
Manufacturer SPXS
Bus Type Starlink V2M
Phase Status In Orbit
Owner/State SPXS/US

Large Constellations

Loading constellations...